Station AAMC1 - 9414750 - Alameda, CA Image indicating link to RSS feed of recent meteorological observations for station AAMC1


Conditions at AAMC1 as of
(12:00 pm PDT)
1900 GMT on 06/14/2024:
     

Click on the graph icon in the table below to see a time series plot of the last five days of that observation.

5-day plot - Wind Direction Wind Direction (WDIR):WSW ( 240 deg true )
5-day plot - Wind Speed Wind Speed (WSPD): 9.9 kts
5-day plot - Wind Gust Wind Gust (GST): 12.0 kts
5-day plot - Atmospheric Pressure Atmospheric Pressure (PRES):30.06 in
5-day plot - Pressure Tendency Pressure Tendency (PTDY):+0.00 in ( Steady )
5-day plot - Water Temperature Water Temperature (WTMP): 65.8 °F
5-day plot - Wind Speed at 10 Meters Wind Speed at 10 meters (WSPD10M): 11.7 kts
5-day plot - Wind Speed at 20 Meters Wind Speed at 20 meters (WSPD20M): 11.7 kts
5-day plot -  Wind Speed, Wind Gust and Atmospheric Pressure Combined plot of Wind Speed, Gust, and Air Pressure
NOS Water Level Observation Network Water Level
Previous observations
TIME
(PDT)
5-day plot - Wind Direction
WDIR
 
5-day plot - Wind Speed
WSPD
kts
5-day plot - Wind Gust
GST
kts
5-day plot - Wave Height
WVHT
ft
5-day plot - Dominant Wave Period
DPD
sec
5-day plot - Average Wave Period
APD
sec
5-day plot - Mean Wave Direction
MWD
 
5-day plot - Atmospheric Pressure
PRES
in
5-day plot - Pressure Tendency
PTDY
in
5-day plot - Air Temperature
ATMP
°F
5-day plot - Water Temperature
WTMP
°F
5-day plot - Dew Point
DEWP
°F
5-day plot - Salinity
SAL
psu
5-day plot - Visibility
VIS
nmi
5-day plot - Tide (above MLLW)
TIDE
ft
2024-06-14 11:54 amWSW 9.9 12.0----30.06-- 65.8----
2024-06-14 11:48 amWSW 9.9 12.0----30.06-- 65.7----
2024-06-14 11:42 amWSW 9.9 12.0----30.06- 58.6 65.7----
2024-06-14 11:36 amWSW 9.9 12.0----30.06- 58.3 65.7----
2024-06-14 11:30 amWSW 8.0 8.9----30.06- 58.1 65.7----
2024-06-14 11:24 amWSW 8.0 9.9----30.06- 58.1 65.7----
2024-06-14 11:18 amWSW 8.9 9.9----30.06- 57.7 65.7----
2024-06-14 11:12 am W 9.9 11.1----30.06- 57.6 65.5----
2024-06-14 11:06 am W 8.0 11.1----30.06- 57.7 65.5----
2024-06-14 11:00 am W 8.9 11.1----30.06- 57.4 65.5----
2024-06-14 10:54 am W 8.9 12.0----30.06- 56.8 65.5----
2024-06-14 10:48 am W 8.9 11.1----30.06- 56.8 65.5----
2024-06-14 10:42 am W 9.9 12.0----30.06- 56.7 65.5----
2024-06-14 10:36 amWSW 8.9 12.0----30.07- 56.8 65.5----
2024-06-14 10:30 amWSW 9.9 12.0----30.07- 56.5 65.5----
2024-06-14 10:24 amWSW 8.0 11.1----30.07- 56.8 65.5----
2024-06-14 10:18 amWSW 8.0 9.9----30.07-------
2024-06-14 10:12 amWSW 8.9 9.9----30.07- 56.5 65.5----
2024-06-14 10:06 amWSW 8.0 9.9----30.06- 56.7 65.5----
2024-06-14 10:00 amWSW 8.0 9.9----30.07+0.02 56.5 65.5----
2024-06-14 09:54 amWSW 8.0 8.9----30.06- 56.1 65.5----
2024-06-14 09:48 amWSW 7.0 11.1----30.06-- 65.5----
2024-06-14 09:42 amWSW 7.0 9.9----30.06-- 65.5----
2024-06-14 09:36 amWSW 7.0 9.9----30.06-- 65.5----
2024-06-14 09:30 am-------30.06- 56.1 65.5----
2024-06-14 09:24 am-------30.06- 56.1 65.5----
2024-06-14 09:18 amWSW 5.1 7.0----30.06- 55.9 65.5----
2024-06-14 09:12 amWSW 2.9 6.0----30.06- 55.8 65.5----
2024-06-14 09:06 amWSW 2.9 4.1----30.06- 55.4 65.5----
2024-06-14 09:00 amSSW 1.9 6.0----30.06+0.02 55.4 65.5----
2024-06-14 08:54 am W 4.1 6.0----30.06- 55.6 65.5----
2024-06-14 08:48 amWSW 2.9 5.1----30.06- 55.2 65.5----
2024-06-14 08:42 am SW 2.9 4.1----30.06- 55.0 65.5----
2024-06-14 08:36 amWSW 4.1 5.1----30.05- 54.7 65.5----
2024-06-14 08:30 am W 2.9 6.0----30.05- 54.5-----
2024-06-14 08:24 amWSW 2.9 5.1----30.05- 54.9-----
2024-06-14 08:18 amWSW 5.1 7.0----30.05- 54.7 65.5----
2024-06-14 08:12 amWSW 5.1 7.0----30.05- 54.1 65.5----
2024-06-14 08:06 am SW 4.1 7.0----30.05- 54.3 65.5----
2024-06-14 08:00 amWSW 4.1 6.0------- 65.5----
2024-06-14 07:54 amSSW 2.9 6.0------- 65.5----
2024-06-14 07:48 amWSW 4.1 6.0----30.04- 54.0 65.5----
2024-06-14 07:42 am SW 4.1 5.1----30.04- 53.8 65.7----
2024-06-14 07:36 amWSW 5.1 6.0----30.04- 53.8 65.7----
2024-06-14 07:30 am-------30.04-- 65.7----
2024-06-14 07:24 am-------30.04-- 65.7----
2024-06-14 07:18 amWSW 7.0 9.9----30.04- 53.4 65.7----
2024-06-14 07:12 amWSW 7.0 9.9----30.05- 53.6 65.7----
2024-06-14 07:06 amWSW 7.0 9.9----30.04- 53.8 65.7----
2024-06-14 07:00 amWSW 8.0 11.1----30.04+0.02 53.8 65.7----
2024-06-14 06:54 amWSW 8.9 11.1----30.05- 53.6 65.7----
2024-06-14 06:48 am SW 8.0 11.1----30.05- 53.4 65.7----
2024-06-14 06:42 amWSW 8.0 12.0----30.05- 54.0 65.7----
2024-06-14 06:36 amWSW 8.9 12.0----30.05- 53.8 65.7----
2024-06-14 06:30 amWSW 8.9 12.0----30.05- 53.8 65.7----
2024-06-14 06:24 amWSW 9.9 12.0----30.05- 53.8 65.7----
2024-06-14 06:18 amWSW 9.9 13.0----30.04- 53.8 65.7----
2024-06-14 06:12 amWSW 8.9 12.0----30.04- 53.6 65.7----
2024-06-14 06:06 amWSW 9.9 12.0----30.04- 53.8 65.7----
2024-06-14 06:00 amWSW 6.0 8.0----30.04+0.01 53.8 65.7----
2024-06-14 05:54 amWSW 6.0 9.9----30.04- 54.0 65.7----
2024-06-14 05:48 amWSW 8.0 9.9----30.03- 53.6 65.7----
2024-06-14 05:42 amWSW 8.0 9.9----30.04- 54.0 65.7----
2024-06-14 05:36 amWSW 5.1 7.0----30.03- 54.3 65.7----
2024-06-14 05:30 am SW 5.1 7.0----30.03- 54.5 65.7----
2024-06-14 05:24 am SW 5.1 6.0----30.03- 54.3 65.7----
2024-06-14 05:18 amSSW 5.1 6.0----30.03- 54.1 65.7----
2024-06-14 05:12 amWSW 4.1 8.0----30.03- 54.1 65.7----
2024-06-14 05:06 amWSW 5.1 8.9----30.03- 53.8 65.7----
2024-06-14 05:00 am W 7.0 9.9----30.03-0.01 54.0 65.7----
2024-06-14 04:54 am W 8.0 12.0----30.03- 53.8 65.7----
2024-06-14 04:48 amWSW 9.9 13.0----30.03- 54.1 65.7----
2024-06-14 04:42 amWSW 9.9 12.0----30.03- 53.8 65.8----
2024-06-14 04:36 am SW 7.0 11.1----30.03- 54.5 65.8----
2024-06-14 04:30 amWSW 8.9 13.0----30.03- 54.3 65.8----
2024-06-14 04:24 am W 9.9 13.0----30.03- 54.3 66.0----
2024-06-14 04:18 am W 11.1 14.0----30.03- 53.6 66.0----
2024-06-14 04:12 am W 11.1 14.0----30.02- 54.0 66.0----
2024-06-14 04:06 am W 9.9 13.0----30.03- 54.0 66.0----
2024-06-14 04:00 amWSW 9.9 12.0----30.02-0.03 53.8 66.0----
2024-06-14 03:54 amWSW 12.0 14.0----30.02- 53.8 66.0----
2024-06-14 03:48 amWSW 12.0 13.0----30.02- 54.1 66.0----
2024-06-14 03:42 amWSW 9.9 12.0----30.02- 54.3 66.0----
2024-06-14 03:36 am W 7.0 11.1----30.02- 54.0 66.0----
2024-06-14 03:30 am W 9.9 13.0----30.03- 53.6 66.0----
2024-06-14 03:24 am W 7.0 11.1----30.03- 54.3 66.0----
2024-06-14 03:18 am W 7.0 9.9----30.03- 54.1 66.2----
2024-06-14 03:12 amWSW 7.0 8.9----30.03- 54.0 66.2----
2024-06-14 03:06 am W 6.0 8.0----30.02- 54.3 66.2----
2024-06-14 03:00 am-------30.03-0.04- 66.2----
2024-06-14 02:54 am-------30.02-- 66.2----
2024-06-14 02:48 am SW 5.1 7.0----30.02-- 66.2----
2024-06-14 02:42 amSSW 5.1 6.0----30.02- 54.1 66.2----
2024-06-14 02:36 am SW 4.1 8.0----30.02- 54.1 66.2----
2024-06-14 02:30 amWSW 5.1 11.1----30.03- 54.0 66.4----
2024-06-14 02:24 am W 8.9 12.0----30.03- 53.8 66.4----
2024-06-14 02:18 amWSW 11.1 13.0----30.03- 53.6 66.4----
2024-06-14 02:12 amWSW 7.0 9.9----30.03- 54.1 66.4----
2024-06-14 02:06 amWSW 5.1 8.9----30.04- 54.3 66.4----
2024-06-14 02:00 amWSW 8.9 12.0----30.04-0.03 54.1 66.4----
2024-06-14 01:54 amWSW 7.0 11.1----30.04- 54.1 66.4----
2024-06-14 01:48 am W 6.0 12.0----30.04- 54.1 66.4----
2024-06-14 01:42 am SW 5.1 8.9----30.04- 54.3 66.4----
2024-06-14 01:36 amWSW 6.0 9.9----30.04- 54.5 66.4----
2024-06-14 01:30 amWSW 8.9 12.0----30.04- 54.1 66.4----
2024-06-14 01:24 amWSW 11.1 13.0----30.04- 54.1 66.4----
2024-06-14 01:18 am SW 9.9 13.0----30.04- 54.9 66.4----
2024-06-14 01:12 amWSW 6.0 11.1----30.04- 54.1 66.4----
2024-06-14 01:06 amWSW 9.9 12.0----30.05- 54.3 66.4----
2024-06-14 01:00 amWSW 9.9 13.0----30.05-0.02 53.8 66.4----
2024-06-14 12:54 amWSW 11.1 14.0----30.05- 54.1 66.6----
2024-06-14 12:48 am SW 9.9 15.0----30.05- 54.1 66.6----
2024-06-14 12:42 am SW 11.1 15.0----30.05- 54.3 66.6----
2024-06-14 12:36 amWSW 8.9 13.0----30.06- 54.1 66.6----
2024-06-14 12:30 am SW 8.9 12.0----30.06- 54.1 66.6----
2024-06-14 12:24 am SW 8.9 12.0----30.06- 54.1 66.6----
2024-06-14 12:18 amWSW 11.1 13.0----30.06- 54.1 66.6----
2024-06-14 12:12 amSSW 8.9 14.0----30.06- 54.0 66.6----
2024-06-14 12:06 amWSW 9.9 14.0----30.06- 54.0 66.6----
2024-06-14 12:00 am SW 11.1 13.0----30.06+0.01 54.3 66.6----
2024-06-13 11:54 pmWSW 12.0 15.0----30.06- 54.1 66.6----
2024-06-13 11:48 pm SW 11.1 15.0----30.06- 54.0 66.6----
2024-06-13 11:42 pm SW 12.0 14.0----30.06- 54.0 66.6----
2024-06-13 11:36 pmWSW 11.1 15.0----30.06- 54.3 66.6----
2024-06-13 11:30 pmWSW 8.9 14.0----30.06- 54.5 66.6----
2024-06-13 11:24 pmWSW 11.1 14.0----30.06- 54.3 66.6----
2024-06-13 11:18 pm SW 8.9 12.0----30.06- 54.3 66.6----
2024-06-13 11:12 pm SW 9.9 13.0----30.06- 54.1 66.6----
2024-06-13 11:06 pmWSW 9.9 15.9----30.06- 54.1 66.6----
2024-06-13 11:00 pm SW 13.0 15.9----30.07+0.03 54.3 66.6----
2024-06-13 10:54 pmWSW 13.0 15.9----30.07- 54.3 66.6----
2024-06-13 10:48 pm SW 11.1 15.0----30.06- 54.7 66.4----
2024-06-13 10:42 pm SW 12.0 15.9----30.07- 54.3 66.6----
2024-06-13 10:36 pm SW 12.0 15.0----30.06- 54.1 66.6----
2024-06-13 10:30 pm SW 12.0 15.0----30.07- 54.0 66.6----
2024-06-13 10:24 pm SW 12.0 15.9----30.06- 54.5 66.6----
2024-06-13 10:18 pmWSW 14.0 17.1----30.07-- 66.6----
2024-06-13 10:12 pmWSW 11.1 15.0----30.07-- 66.6----
2024-06-13 10:06 pm SW 13.0 17.1----30.07-- 66.6----
2024-06-13 10:00 pm SW 15.9 18.1----30.07+0.04 54.5 66.4----
2024-06-13 09:54 pmWSW 13.0 15.9----30.06- 54.3 66.4----
2024-06-13 09:48 pmWSW 14.0 17.1----30.06- 54.3 66.4----
2024-06-13 09:42 pm SW 12.0 17.1----30.06- 54.9 66.4----
2024-06-13 09:36 pmWSW 15.0 19.0----30.06- 54.5 66.4----
2024-06-13 09:30 pm SW 13.0 17.1----30.06- 54.3 66.4----
2024-06-13 09:24 pm SW 9.9 15.9----30.06- 54.7 66.4----
2024-06-13 09:18 pm SW 13.0 17.1----30.06- 54.5 66.4----
2024-06-13 09:12 pm SW 11.1 15.0----30.05- 54.3 66.4----
2024-06-13 09:06 pmWSW 11.1 15.0----30.05- 54.5 66.6----
2024-06-13 09:00 pmWSW 12.0 19.0----30.05+0.04 54.5 66.6----
2024-06-13 08:54 pmWSW 14.0 17.1----30.05- 55.0 66.6----
2024-06-13 08:48 pmWSW 14.0 18.1----30.05- 54.5 66.6----
2024-06-13 08:42 pmWSW 13.0 17.1----30.05- 54.3 66.6----
2024-06-13 08:36 pmWSW 11.1 14.0----30.04- 54.7 66.6----
2024-06-13 08:30 pmWSW 13.0 15.9----30.04- 54.7 66.6----
2024-06-13 08:24 pmWSW 11.1 15.9----30.04- 54.7 66.6----
2024-06-13 08:18 pmWSW 9.9 15.0----30.04-- 66.6----
2024-06-13 08:12 pmWSW 11.1 14.0----30.04- 54.7 66.6----
2024-06-13 08:06 pm W 12.0 15.0----30.04- 54.7 66.6----
2024-06-13 08:00 pm SW 14.0 18.1----30.04+0.03 54.7 66.7----
2024-06-13 07:54 pmWSW 11.1 14.0----30.04- 54.7 66.7----
2024-06-13 07:48 pmWSW 11.1 15.0----30.04-- 66.7----
2024-06-13 07:42 pmWSW 13.0 17.1----30.03- 54.3 66.7----
2024-06-13 07:36 pmWSW 12.0 14.0----30.03- 54.1 66.7----
2024-06-13 07:30 pmWSW 9.9 15.9----30.03- 54.5 66.7----
2024-06-13 07:24 pm SW 13.0 17.1----30.03- 54.5 66.7----
2024-06-13 07:18 pm SW 12.0 14.0----30.03-- 66.9----
2024-06-13 07:12 pmWSW 12.0 15.9----30.03- 54.5 66.9----
2024-06-13 07:06 pmWSW 9.9 14.0----30.03- 54.0 66.9----
2024-06-13 07:00 pmWSW 8.9 12.0----30.03+0.01 54.0 66.9----
2024-06-13 06:54 pmWSW 8.9 15.0----30.02- 53.6 66.9----
2024-06-13 06:48 pmWSW 13.0 17.1----30.02-- 66.9----
2024-06-13 06:42 pmWSW 15.0 19.0----30.02- 53.8 66.9----
2024-06-13 06:36 pmWSW 13.0 17.1----30.02- 53.8 66.9----
2024-06-13 06:30 pmWSW 14.0 18.1----30.02- 53.1 66.9----
2024-06-13 06:24 pmWSW 11.1 15.9----30.02- 53.4 66.9----
2024-06-13 06:18 pmWSW 13.0 17.1----30.02- 53.6 66.9----
2024-06-13 06:12 pmWSW 14.0 17.1----30.02- 53.6 66.9----
2024-06-13 06:06 pmWSW 14.0 17.1----30.01- 53.8 66.9----
2024-06-13 06:00 pmWSW 14.0 17.1----30.01+0.00 53.4 66.9----
2024-06-13 05:54 pmWSW 14.0 17.1----30.01- 53.2 66.9----
2024-06-13 05:48 pmWSW 15.9 20.0----30.02-- 66.9----
2024-06-13 05:42 pmWSW 13.0 17.1----30.02- 54.0 66.9----
2024-06-13 05:36 pmWSW 15.9 19.0----30.02- 53.8 66.9----
2024-06-13 05:30 pmWSW 15.0 19.0----30.02- 54.3 66.9----
2024-06-13 05:24 pmWSW 14.0 18.1----30.01- 54.1 66.9----
2024-06-13 05:18 pmWSW 13.0 18.1----30.01- 54.3 66.9----
2024-06-13 05:12 pmWSW 13.0 17.1----30.02- 54.1 66.9----
2024-06-13 05:06 pmWSW 14.0 15.9----30.02- 54.0 67.1----
2024-06-13 05:00 pmWSW 14.0 18.1----30.01+0.00 54.1 66.9----
2024-06-13 04:54 pmWSW 15.9 19.0----30.02- 54.3 67.1----
2024-06-13 04:48 pmWSW 15.0 20.0----30.01-- 66.9----
2024-06-13 04:42 pm W 15.0 19.0----30.01- 54.7 66.9----
2024-06-13 04:36 pm W 15.0 18.1----30.01- 54.7 67.1----
2024-06-13 04:30 pmWSW 15.0 18.1----30.01- 54.9 67.1----
2024-06-13 04:24 pm W 14.0 18.1----30.01- 55.6 67.1----
2024-06-13 04:18 pm W 14.0 17.1----30.01- 55.6 67.1----
2024-06-13 04:12 pm W 14.0 15.9----30.01- 56.3 67.3----
2024-06-13 04:06 pm W 13.0 18.1----30.01- 55.6 67.3----
2024-06-13 04:00 pm W 15.0 19.0----30.01+0.00- 67.3----
2024-06-13 03:54 pmWSW 14.0 18.1----30.01-- 67.1----
2024-06-13 03:48 pm W 13.0 18.1----30.01-------
2024-06-13 03:42 pm W 14.0 17.1----30.01-------
2024-06-13 03:36 pm W 13.0 17.1----30.01-------
2024-06-13 03:30 pm W 14.0 18.1----30.01- 55.4 66.9----
2024-06-13 03:24 pm W 14.0 18.1----30.01- 55.4 67.1----
2024-06-13 03:18 pm W 15.0 17.1----30.01- 55.2 67.1----
2024-06-13 03:12 pm W 13.0 17.1----30.01- 55.8 67.1----
2024-06-13 03:06 pm W 14.0 19.0----30.01- 55.9 67.1----
2024-06-13 03:00 pm W 12.0 15.9----30.01+0.01- 67.1----
2024-06-13 02:54 pm W 12.0 17.1----30.01-- 67.3----
2024-06-13 02:48 pm W 14.0 18.1----30.02- 55.9 67.3----
2024-06-13 02:42 pmWSW 14.0 19.0----30.02- 55.9 67.3----
2024-06-13 02:36 pm W 14.0 19.0----30.02- 55.6 67.1----
2024-06-13 02:30 pm W 13.0 20.0----30.02- 55.8 67.1----
2024-06-13 02:24 pm W 15.0 20.0----30.02- 56.3 66.9----
2024-06-13 02:18 pm W 15.9 19.0----30.02-- 66.9----
2024-06-13 02:12 pm W 15.0 19.0----30.01-- 66.9----
2024-06-13 02:06 pm W 14.0 18.1----30.01-- 66.9----
2024-06-13 02:00 pm W 13.0 17.1----30.01+0.02 55.9 66.7----
2024-06-13 01:54 pm W 13.0 17.1----30.01- 55.8 66.7----
2024-06-13 01:48 pm W 13.0 17.1----30.01- 55.8 66.7----
2024-06-13 01:42 pm W 11.1 15.9----30.01- 55.6 66.7----
2024-06-13 01:36 pm W 12.0 17.1----30.01- 55.0 66.7----
2024-06-13 01:30 pmWSW 13.0 17.1----30.01- 55.4 66.9----
2024-06-13 01:24 pm W 13.0 15.0----30.01- 55.6 66.7----
2024-06-13 01:18 pm W 12.0 17.1----30.01-- 66.7----
2024-06-13 01:12 pm W 12.0 15.9----30.01-- 66.7----
2024-06-13 01:06 pm W 14.0 19.0----30.01-- 66.7----
2024-06-13 01:00 pm W 13.0 15.9----30.01+0.04 55.4 66.7----
2024-06-13 12:54 pm W 14.0 18.1----30.01- 54.5 66.7----
2024-06-13 12:48 pm W 15.0 18.1----30.01- 54.7 66.6----
2024-06-13 12:42 pm W 14.0 19.0----30.01- 54.7 66.6----
2024-06-13 12:36 pm W 14.0 17.1----30.01- 54.9 66.7----
2024-06-13 12:30 pm W 13.0 17.1----30.01-- 66.7----
2024-06-13 12:24 pm W 15.0 18.1----30.01-- 66.7----
2024-06-13 12:18 pm W 13.0 15.9----30.01- 54.9 66.7----
2024-06-13 12:12 pm W 13.0 15.9----30.01- 55.4 66.7----
2024-06-13 12:06 pm W 13.0 15.9----30.01- 54.7 66.6----
2024-06-13 12:00 pm W 14.0 17.1----30.01- 54.9 66.6----
2024-06-13 11:54 am W 13.0 19.0----30.00- 54.9 66.6----